Regional Weather Roundup
Issued by NWS Northern Indiana

Home | Current Version | Previous Version | Graphics & Text | Print | Product List | Glossary On
Versions: 1 2 3 4 5 6 7 8 9 10 11 12 13 14 15 16 17 18 19 20 21 22 23 24 25 26 27 28 29 30 31 32 33 34 35 36 37 38 39 40 41 42 43 44 45 46 47 48 49 50
000
ASUS43 KIWX 211710
RWRIWX

KIWX WEATHER ROUNDUP
NATIONAL WEATHER SERVICE NORTHERN INDIANA
1200 PM EST WED FEB 21 2018

NOTE: "FAIR" INDICATES FEW OR NO CLOUDS BELOW 12,000 FEET WITH NO
SIGNIFICANT WEATHER AND/OR OBSTRUCTIONS TO VISIBILITY.

* THESE STATIONS ARE NOT UNDER NWS QUALITY CONTROL. THEY ALSO MAY NOT
  REPORT WEATHER SUCH AS PRECIPITATION OR FOG.

INZ001>027-211800-
NORTHERN INDIANA

CITY           SKY/WX    TMP DP  RH WIND       PRES   REMARKS
GARY*          CLOUDY    32  23  69 N12G23    30.54S WCI  23
VALPARAISO     CLOUDY    31  26  82 N12G20    30.53R WCI  22
MICHIGAN CITY* CLOUDY    30  28  93 N12       30.55R WCI  21
LAPORTE*       CLOUDY    30  27  88 N10       30.53R WCI  21
SOUTH BEND     CLOUDY    30  27  88 N16       30.52R WCI  19
ELKHART*       CLOUDY    32  28  86 N10       30.51R WCI  24
GOSHEN         CLOUDY    33  29  85 NW9G18    30.50R WCI  25
MONTICELLO*    PTSUNNY   32  31  96 N12       30.50S WCI  23
LOGANSPORT*    CLOUDY    34  30  86 N12       30.51R WCI  25
ROCHESTER*     CLOUDY    36  32  87 N9        30.50R
WARSAW*        CLOUDY    32  30  93 N10       30.49R WCI  24
AUBURN*        CLOUDY    34  32  93 NW7       30.48R WCI  28
FORT WAYNE     CLOUDY    37  33  85 N10       30.46R
HUNTINGTON*    CLOUDY    35  32  90 N9        30.47R WCI  27
PERU/GRISSOM   CLOUDY    35  35 100 N10       30.48R WCI  27
MARION*        CLOUDY    35  32  90 N8        30.49R WCI  28

$$
INZ028>050-211800-
CENTRAL INDIANA

CITY           SKY/WX    TMP DP  RH WIND       PRES   REMARKS
LAFAYETTE      CLOUDY    34  30  85 N8        30.50R WCI  27
KOKOMO*        CLOUDY    35  32  88 N14       30.50R WCI  26
MUNCIE*        LGT RAIN  39  34  82 N10       30.46R
INDIANAPOLIS   LGT RAIN  38  36  92 N8        30.46R

$$
MIZ043>046-050>051-056>058-064>065-071>073-077>080-211800-
SOUTHWEST LOWER MICHIGAN

CITY           SKY/WX    TMP DP  RH WIND       PRES   REMARKS
BATTLE CREEK   CLOUDY    33  29  85 N8        30.49R WCI  26
BENTON HARBOR  CLOUDY    31  25  78 N8        30.54R WCI  23
COLDWATER*     CLOUDY    33  33  99 NW10      30.48R WCI  25
HILLSDALE*     CLOUDY    34  32  93 N10       30.44R WCI  26
HOLLAND        CLOUDY    31  26  82 NW9       30.53R WCI  23
GRAND RAPIDS   CLOUDY    33  27  78 NW9       30.50R WCI  25
KALAMAZOO      CLOUDY    33  29  85 NW12      30.50R WCI  24
STURGIS*       CLOUDY    33  31  91 N9        30.48R WCI  26
THREE RIVERS*  CLOUDY    34  30  86 N9        30.51R WCI  26

$$
OHZ001>008-015>018-024>025-211800-
NORTHWEST OHIO

CITY           SKY/WX    TMP DP  RH WIND       PRES   REMARKS
WAUSEON*       CLOUDY    37  37 100 N10       30.46R
DEFIANCE       CLOUDY    37  33  85 VRB7      30.46R
FINDLAY        LGT RAIN  41  37  86 N9        30.44R
TOLEDO EXPRESS CLOUDY    38  36  92 N10       30.46R
TOLEDO METCALF LGT RAIN  40  35  83 NW10      30.46R
LIMA           LGT RAIN  38  38 100 NW12      30.44R

$$
AND FOR LAKE MICHIGAN COASTAL AND OPEN LAKE BUOY OBSERVATIONS

STATION/POSITION TEMP    WIND        PRES    VSBY  WAVE
                 AIR SEA DIR/SP/G                  HT/PER
                 (F)     (DEG/KT/KT) (MB)    (MI)  (FT/S)
CALUMET HARBOR    28     340/ 12/ 16 1034.3R
MICHIGAN CITY     30     340/ 19/ 20   N/A
BURNS HARBOR      29     350/ 13/ 18 1034.9R
SAINT JOSEPH      31     360/ 15/ 18 1035.2

$$
&&




USA.gov is the U.S. government's official web portal to all federal, state and local government web resources and services.